Satellite: NOAA-11
Catalog number: 19531
Epoch time:      10244.75325764
Element set:    0199
Inclination:      098.7676 deg
RA of node:       332.4705 deg
Eccentricity:    0.0010878
Arg of perigee:   292.8038 deg
Mean anomaly:     067.1991 deg
Mean motion:   14.14932896 rev/day
Decay rate:      -2.21e-06 rev/day^2
Epoch rev:           13196
Checksum:              329

Satellite: NOAA-12
Catalog number: 21263
Epoch time:      10244.85092336
Element set:    0692
Inclination:      098.7655 deg
RA of node:       258.0014 deg
Eccentricity:    0.0011807
Arg of perigee:   307.9852 deg
Mean anomaly:     052.0254 deg
Mean motion:   14.25651254 rev/day
Decay rate:        2.6e-07 rev/day^2
Epoch rev:           00332
Checksum:              272

Satellite: MET-3/5
Catalog number: 21655
Epoch time:      10245.51650402
Element set:     903
Inclination:      082.5545 deg
RA of node:       253.9954 deg
Eccentricity:    0.0014073
Arg of perigee:   150.4030 deg
Mean anomaly:     209.7893 deg
Mean motion:   13.17026543 rev/day
Decay rate:        5.1e-07 rev/day^2
Epoch rev:           91585
Checksum:              283

Satellite: MET-2/21
Catalog number: 22782
Epoch time:      10244.36537479
Element set:    0874
Inclination:      082.5492 deg
RA of node:       192.0037 deg
Eccentricity:    0.0022089
Arg of perigee:   184.8114 deg
Mean anomaly:     175.2830 deg
Mean motion:   13.83647313 rev/day
Decay rate:        5.9e-07 rev/day^2
Epoch rev:           85861
Checksum:              318

Satellite: OKEAN-4
Catalog number: 23317
Epoch time:      10245.72102413
Element set:     328
Inclination:      082.5393 deg
RA of node:       281.4933 deg
Eccentricity:    0.0021915
Arg of perigee:   351.4289 deg
Mean anomaly:     008.6548 deg
Mean motion:   14.82852783 rev/day
Decay rate:       -1.1e-07 rev/day^2
Epoch rev:           85794
Checksum:              301

Satellite: NOAA-14
Catalog number: 23455
Epoch time:      10244.85812241
Element set:    0181
Inclination:      098.8750 deg
RA of node:       325.0537 deg
Eccentricity:    0.0009854
Arg of perigee:   023.1921 deg
Mean anomaly:     336.9687 deg
Mean motion:   14.13792610 rev/day
Decay rate:       -2.1e-07 rev/day^2
Epoch rev:           80833
Checksum:              295

Satellite: NOAA-15
Catalog number: 25338
Epoch time:      10244.76722536
Element set:    0505
Inclination:      098.6263 deg
RA of node:       230.3451 deg
Eccentricity:    0.0010121
Arg of perigee:   207.4051 deg
Mean anomaly:     152.6579 deg
Mean motion:   14.24852511 rev/day
Decay rate:       1.64e-06 rev/day^2
Epoch rev:           63965
Checksum:              280

Satellite: RESURS
Catalog number: 25394
Epoch time:      10244.78502660
Element set:    0595
Inclination:      098.3047 deg
RA of node:       258.6945 deg
Eccentricity:    0.0002072
Arg of perigee:   029.6230 deg
Mean anomaly:     330.5063 deg
Mean motion:   14.24208236 rev/day
Decay rate:       -3.7e-07 rev/day^2
Epoch rev:           63125
Checksum:              280

Satellite: FENGYUN1
Catalog number: 25730
Epoch time:      10245.39602625
Element set:     126
Inclination:      098.7897 deg
RA of node:       208.3520 deg
Eccentricity:    0.0023353
Arg of perigee:   047.5005 deg
Mean anomaly:     312.8136 deg
Mean motion:   14.08264660 rev/day
Decay rate:       3.40e-06 rev/day^2
Epoch rev:           58255
Checksum:              279

Satellite: OKEAN-0
Catalog number: 25860
Epoch time:      10245.41457374
Element set:      88
Inclination:      097.8413 deg
RA of node:       215.5237 deg
Eccentricity:    0.0001149
Arg of perigee:   107.8110 deg
Mean anomaly:     252.3224 deg
Mean motion:   14.73658668 rev/day
Decay rate:        4.0e-07 rev/day^2
Epoch rev:           59827
Checksum:              294

Satellite: NOAA-16
Catalog number: 26536
Epoch time:      10244.79584017
Element set:    0983
Inclination:      099.1697 deg
RA of node:       264.0666 deg
Eccentricity:    0.0011291
Arg of perigee:   120.1586 deg
Mean anomaly:     240.0680 deg
Mean motion:   14.12573838 rev/day
Decay rate:      -1.64e-06 rev/day^2
Epoch rev:           51264
Checksum:              311

Satellite: NOAA-17
Catalog number: 27453
Epoch time:      10244.71580496
Element set:    0976
Inclination:      098.4232 deg
RA of node:       292.0515 deg
Eccentricity:    0.0010752
Arg of perigee:   274.3776 deg
Mean anomaly:     085.6164 deg
Mean motion:   14.24186167 rev/day
Decay rate:        7.4e-07 rev/day^2
Epoch rev:           42559
Checksum:              322

Satellite: NOAA-18
Catalog number: 28654
Epoch time:      10244.72213423
Element set:    0464
Inclination:      098.9548 deg
RA of node:       190.7840 deg
Eccentricity:    0.0013887
Arg of perigee:   194.1071 deg
Mean anomaly:     165.9715 deg
Mean motion:   14.11382793 rev/day
Decay rate:      -1.54e-06 rev/day^2
Epoch rev:           27223
Checksum:              315

